Main page
METAR-TAF:

METAR-TAF

Airports :

Maharana Pratap Airport

Udaipur, India

latitude: 24-37-04N, longitude: 73-53-46E, elevation: 513 m

Current weather observation

The report was made 40 minutes ago, at 01:30 UTC
Wind 2 kt from the Northeast
Temperature 13°C
Humidity 67%
Pressure 1018 hPa
Visibility: 4000 m
haze

METAR: VAUD 160130Z 05002KT 4000 HZ NSC 13/07 Q1018 NOSIG

Time: 07:40 (02:10 UTC)


TAF: missing

Weather observations and forecasts of more than 4000 airports (METAR and TAF reports).

The available stations are represented by yellow and red dots on the map.

Hover mouse over dot to see the name of the station.

Then click to see weather observations and forecasts.

To change the map : click on the green buttons with a black cross to zoom in, on the green button with a dash to zoom out, or on the green arrows for adjacent maps.


METAR-TAF: